Flag for Zimbabwe Weather past 2 weeks in Harare, Zimbabwe

Now
79 °F

Passing clouds.


Feels Like: 78 °F
Forecast: 55 / 84 °F
Wind: 8 mph from Southeast

Location: Harare Kutsaga Airport

Current Time: Oct 21, 2014 at 12:42:38 PM

Latest Report: Oct 21, 2014 at 11:00 AM


Visibility: N/A

Pressure: 30.27 "Hg

Humidity: 28%

Dew point: 43 °F

Location of HarareLocation

Historic Weather in Harare — Graph

°F

Harare temperature yesterday

Maximum temperature yesterday: 84 °F (at 2:00 PM)
Minimum temperature yesterday: 61 °F (at 2:00 AM)
Average temperature yesterday: 74 °F

Past Weeks' High & Low Weather Summary

 TemperatureHumidityPressure
High91 °F (Oct 10, 1:00 PM)100% (Oct 11, 10:00 PM)30.36 "Hg (Oct 11, 10:00 PM)
Low48 °F (Oct 7, 5:00 AM)11% (Oct 17, 5:00 PM)29.92 "Hg (Oct 16, 3:00 PM)
Average73 °F45%30.16 "Hg
* Reported Oct 6 11:00 AM — Oct 21 11:00 AM, Harare, Weather by CustomWeather, © 2014

Note: Actual official high and low records may vary slightly from our data, if they occured in-between our weather recording intervals... More about our weather records

Advertising

Harare weather history for previous 24 hours

 ConditionsComfort  
Time TempWeatherWind HumidityBarometerVisibility
11:00 AM
Oct 21
79 °FPassing clouds.8 mph28%30.27 "HgN/A
8:00 AM68 °FPassing clouds.10 mph49%30.30 "HgN/A
7:00 AM64 °FPassing clouds.8 mph52%30.27 "HgN/A
6:00 AM57 °FSunny.5 mph63%30.24 "Hg10 mi
5:00 AM54 °FClear.8 mph72%30.24 "Hg10 mi
2:00 AM57 °FClear.6 mph63%30.21 "Hg10 mi
1:00 AM59 °FClear.5 mph59%30.21 "Hg10 mi
12:00 AM63 °FClear.5 mph52%30.24 "Hg10 mi
11:00 PM
Oct 20
64 °FClear.9 mph43%30.24 "Hg10 mi
10:00 PM68 °FPassing clouds.8 mph23%30.24 "HgN/A
9:00 PM70 °FClear.9 mph23%30.21 "Hg10 mi
8:00 PM72 °FClear.8 mph25%30.18 "Hg10 mi
7:00 PM73 °FClear.5 mph25%30.18 "Hg10 mi
5:00 PM81 °FPassing clouds.8 mph18%30.15 "HgN/A
4:00 PM82 °FPassing clouds.8 mph17%30.12 "HgN/A
3:00 PM84 °FSunny.6 mph18%30.15 "Hg10 mi
2:00 PM84 °FPassing clouds.10 mph18%30.15 "HgN/A
1:00 PM82 °FPassing clouds.7 mph21%30.18 "HgN/A
12:00 PM79 °FPassing clouds.6 mph26%30.21 "HgN/A
Weather by CustomWeather, © 2014

See weather overviewHow to use our weather pages